TVS4459 VAAH-HEGN

Flight info

Callsign TVS4459
Flight time 5h 34m
Altitude 37000
Route LIGPI1A LIGPI W62 HSR W74 LAXOM L639 RASKI N881 KIPOL L444 TOLDA M628 TULBU G652 TOKRA DCT MEDPO DCT BOSOB DCT ITRUX Y511 PMA Z712 WEJ L677 PASAM N316 HGD
Aircraft B38M/M-SDE3FGHIJ1J3J4J7M3P2RWXYZ/LB1D1

Departure

Time 2026-04-20 13:05
Airport Sardar Vallabh Patel International Airport (VAAH)

Arrival

Time 2026-04-20 18:40
Airport Hurghada International Airport (HEGN)
Time Latitude Longitude Altitude Speed Heading
2026-04-20 12:50 23.07326 72.62403 193 ft 0 kts 314°
2026-04-20 12:56 23.07318 72.62412 212 ft 2 kts 313°
2026-04-20 12:56 23.07308 72.62427 208 ft 3 kts 284°
2026-04-20 12:56 23.07309 72.62444 204 ft 3 kts 236°
2026-04-20 12:56 23.07320 72.62458 208 ft 1 kts 223°
2026-04-20 12:57 23.07322 72.62460 208 ft 2 kts 223°
2026-04-20 13:00 23.07319 72.62457 208 ft 3 kts 218°
2026-04-20 13:00 23.07272 72.62475 193 ft 13 kts 128°
2026-04-20 13:00 23.07187 72.62570 193 ft 22 kts 134°
2026-04-20 13:01 23.07225 72.62666 201 ft 16 kts 44°
2026-04-20 13:01 23.07310 72.62757 196 ft 18 kts 44°
2026-04-20 13:01 23.07404 72.62857 195 ft 19 kts 44°
2026-04-20 13:01 23.07501 72.62960 198 ft 20 kts 44°
2026-04-20 13:02 23.07601 72.63066 198 ft 20 kts 44°
2026-04-20 13:02 23.07676 72.63194 199 ft 21 kts 74°
2026-04-20 13:02 23.07715 72.63349 199 ft 21 kts 75°
2026-04-20 13:02 23.07767 72.63498 202 ft 21 kts 44°
2026-04-20 13:03 23.07877 72.63616 196 ft 23 kts 45°
2026-04-20 13:03 23.07991 72.63739 201 ft 23 kts 44°
2026-04-20 13:03 23.08109 72.63862 198 ft 24 kts 44°
2026-04-20 13:03 23.08228 72.63988 199 ft 24 kts 44°
2026-04-20 13:04 23.08300 72.64114 211 ft 11 kts 78°
2026-04-20 13:04 23.08347 72.64129 200 ft 6 kts 313°
2026-04-20 13:04 23.08346 72.64114 205 ft 4 kts 230°
2026-04-20 13:04 23.08135 72.63890 203 ft 82 kts 223°
2026-04-20 13:05 23.07558 72.63279 205 ft 148 kts 224°
2026-04-20 13:05 23.06688 72.62399 387 ft 187 kts 222°
2026-04-20 13:05 23.05820 72.61260 902 ft 206 kts 245°
2026-04-20 13:05 23.05686 72.59675 1442 ft 222 kts 276°
2026-04-20 13:06 23.05991 72.57970 2017 ft 236 kts 281°
2026-04-20 13:06 23.06248 72.56181 2560 ft 244 kts 272°
2026-04-20 13:06 23.06316 72.54317 3104 ft 249 kts 269°
2026-04-20 13:06 23.06307 72.52424 3641 ft 252 kts 266°
2026-04-20 13:07 23.06216 72.50522 4180 ft 253 kts 264°
2026-04-20 13:07 23.06059 72.48601 4653 ft 256 kts 262°
2026-04-20 13:07 23.05853 72.46641 5189 ft 269 kts 261°
2026-04-20 13:07 23.05602 72.44576 5738 ft 282 kts 260°
2026-04-20 13:08 23.05316 72.42417 6282 ft 295 kts 259°
2026-04-20 13:08 23.05006 72.40168 6811 ft 307 kts 259°
2026-04-20 13:08 23.04676 72.37834 7345 ft 318 kts 259°
2026-04-20 13:08 23.04328 72.35422 7890 ft 328 kts 259°
2026-04-20 13:09 23.03966 72.32941 8445 ft 337 kts 258°
2026-04-20 13:09 23.03597 72.30438 9002 ft 344 kts 258°
2026-04-20 13:09 23.03214 72.27848 9552 ft 351 kts 258°
2026-04-20 13:09 23.02822 72.25213 10069 ft 357 kts 258°
2026-04-20 13:10 23.02422 72.22535 10610 ft 361 kts 258°
2026-04-20 13:10 23.02015 72.19827 11138 ft 365 kts 258°
2026-04-20 13:10 23.01604 72.17096 11681 ft 369 kts 258°
2026-04-20 13:10 23.01187 72.14339 12243 ft 371 kts 258°
2026-04-20 13:11 23.00903 72.12467 12583 ft 374 kts 258°
2026-04-20 13:11 23.00478 72.09659 13046 ft 379 kts 258°
2026-04-20 13:11 23.00050 72.06825 13535 ft 383 kts 258°
2026-04-20 13:11 22.99616 72.03964 13978 ft 386 kts 258°
2026-04-20 13:12 22.99178 72.01084 14423 ft 388 kts 258°
2026-04-20 13:12 22.98742 71.98222 14866 ft 390 kts 258°
2026-04-20 13:12 22.98298 71.95312 15328 ft 392 kts 258°
2026-04-20 13:12 22.97846 71.92348 15792 ft 393 kts 258°
2026-04-20 13:13 22.97404 71.89454 16254 ft 395 kts 258°
2026-04-20 13:13 22.96953 71.86514 16733 ft 396 kts 258°
2026-04-20 13:13 22.96501 71.83566 17219 ft 396 kts 258°
2026-04-20 13:13 22.96048 71.80613 17717 ft 397 kts 258°
2026-04-20 13:14 22.95593 71.77663 18202 ft 397 kts 258°
2026-04-20 13:14 22.95139 71.74711 18638 ft 397 kts 259°
2026-04-20 13:14 22.94683 71.71758 19092 ft 397 kts 259°
2026-04-20 13:14 22.94228 71.68807 19545 ft 397 kts 259°
2026-04-20 13:15 22.93772 71.65858 20005 ft 397 kts 259°
2026-04-20 13:15 22.93316 71.62905 20472 ft 397 kts 259°
2026-04-20 13:15 22.92859 71.59955 20956 ft 396 kts 259°
2026-04-20 13:15 22.92402 71.57010 21439 ft 397 kts 259°
2026-04-20 13:16 22.91945 71.54061 21933 ft 397 kts 259°
2026-04-20 13:16 22.91486 71.51108 22439 ft 396 kts 259°
2026-04-20 13:16 22.91027 71.48164 22952 ft 396 kts 259°
2026-04-20 13:16 22.90569 71.45222 23457 ft 396 kts 259°
2026-04-20 13:17 22.90110 71.42278 23899 ft 395 kts 259°
2026-04-20 13:17 22.89652 71.39345 24342 ft 395 kts 259°
2026-04-20 13:17 22.89190 71.36391 24604 ft 400 kts 259°
2026-04-20 13:17 22.88723 71.33396 24834 ft 406 kts 259°
2026-04-20 13:18 22.88248 71.30359 25060 ft 411 kts 259°
2026-04-20 13:18 22.87766 71.27286 25294 ft 416 kts 259°
2026-04-20 13:18 22.87278 71.24172 25523 ft 421 kts 259°
2026-04-20 13:18 22.86783 71.21024 25760 ft 426 kts 259°
2026-04-20 13:19 22.86282 71.17845 25994 ft 430 kts 259°
2026-04-20 13:19 22.85775 71.14630 26241 ft 434 kts 259°
2026-04-20 13:19 22.85262 71.11383 26480 ft 438 kts 259°
2026-04-20 13:19 22.84753 71.08161 26725 ft 442 kts 260°
2026-04-20 13:20 22.84230 71.04861 26973 ft 445 kts 259°
2026-04-20 13:20 22.83704 71.01545 27219 ft 449 kts 259°
2026-04-20 13:20 22.83172 70.98195 27471 ft 452 kts 259°
2026-04-20 13:20 22.82637 70.94833 27728 ft 455 kts 260°
2026-04-20 13:21 22.82097 70.91443 27990 ft 457 kts 260°
2026-04-20 13:21 22.81554 70.88042 28258 ft 460 kts 260°
2026-04-20 13:21 22.81008 70.84618 28503 ft 462 kts 260°
2026-04-20 13:21 22.80574 70.81158 28748 ft 463 kts 265°
2026-04-20 13:22 22.80550 70.77673 28998 ft 463 kts 276°
2026-04-20 13:22 22.81021 70.74225 29325 ft 462 kts 278°
2026-04-20 13:22 22.81432 70.70764 29609 ft 464 kts 276°
2026-04-20 13:22 22.81748 70.67280 29871 ft 464 kts 275°
2026-04-20 13:23 22.82016 70.63801 30102 ft 465 kts 274°
2026-04-20 13:23 22.82262 70.60297 30335 ft 467 kts 274°
2026-04-20 13:23 22.82492 70.56785 30566 ft 468 kts 274°
2026-04-20 13:23 22.82714 70.53258 30799 ft 470 kts 274°
2026-04-20 13:24 22.82934 70.49724 31037 ft 471 kts 274°
2026-04-20 13:24 22.83153 70.46187 31272 ft 471 kts 273°
2026-04-20 13:24 22.83373 70.42643 31512 ft 471 kts 273°
2026-04-20 13:24 22.83593 70.39094 31753 ft 472 kts 273°
2026-04-20 13:25 22.83811 70.35549 31993 ft 471 kts 273°
2026-04-20 13:25 22.84029 70.32001 32239 ft 471 kts 273°
2026-04-20 13:25 22.84245 70.28462 32487 ft 470 kts 273°
2026-04-20 13:25 22.84460 70.24927 32736 ft 469 kts 273°
2026-04-20 13:26 22.84674 70.21405 32986 ft 468 kts 273°
2026-04-20 13:26 22.84887 70.17883 33242 ft 467 kts 273°
2026-04-20 13:26 22.85099 70.14380 33497 ft 466 kts 273°
2026-04-20 13:26 22.85309 70.10879 33763 ft 465 kts 272°
2026-04-20 13:27 22.85518 70.07389 33994 ft 463 kts 272°
2026-04-20 13:27 22.85725 70.03911 34222 ft 462 kts 272°
2026-04-20 13:27 22.85928 70.00484 34441 ft 460 kts 272°
2026-04-20 13:27 22.86136 69.96984 34676 ft 459 kts 272°
2026-04-20 13:28 22.86339 69.93539 34902 ft 457 kts 272°
2026-04-20 13:28 22.86540 69.90108 35136 ft 455 kts 272°
2026-04-20 13:28 22.86737 69.86728 35368 ft 454 kts 272°
2026-04-20 13:28 22.86936 69.83324 35603 ft 452 kts 272°
2026-04-20 13:29 22.87133 69.79934 35822 ft 450 kts 272°
2026-04-20 13:29 22.87329 69.76558 36082 ft 448 kts 272°
2026-04-20 13:29 22.87523 69.73198 36330 ft 445 kts 272°
2026-04-20 13:29 22.87723 69.69858 36572 ft 443 kts 273°
2026-04-20 13:30 22.87942 69.66540 36809 ft 440 kts 273°
2026-04-20 13:30 22.88375 69.59884 36835 ft 446 kts 273°
2026-04-20 13:31 22.88807 69.53130 36837 ft 452 kts 273°
2026-04-20 13:31 22.89241 69.46307 36844 ft 455 kts 273°
2026-04-20 13:32 22.89673 69.39469 36840 ft 455 kts 273°
2026-04-20 13:32 22.90103 69.32625 36844 ft 455 kts 273°
2026-04-20 13:33 22.90530 69.25768 36842 ft 456 kts 273°
2026-04-20 13:33 22.90955 69.18901 36843 ft 457 kts 273°
2026-04-20 13:34 22.91378 69.12026 36841 ft 458 kts 273°
2026-04-20 13:34 22.91799 69.05128 36841 ft 458 kts 274°
2026-04-20 13:35 22.92214 68.98273 36846 ft 459 kts 274°
2026-04-20 13:35 22.92630 68.91366 36847 ft 459 kts 274°
2026-04-20 13:36 22.93042 68.84457 36844 ft 459 kts 274°
2026-04-20 13:36 22.93453 68.77538 36845 ft 460 kts 274°
2026-04-20 13:37 22.93860 68.70615 36847 ft 460 kts 274°
2026-04-20 13:37 22.94265 68.63685 36854 ft 460 kts 274°
2026-04-20 13:38 22.94667 68.56751 36853 ft 461 kts 274°
2026-04-20 13:38 22.95066 68.49814 36852 ft 461 kts 275°
2026-04-20 13:39 22.95464 68.42870 36851 ft 461 kts 275°
2026-04-20 13:39 22.95555 68.35919 36855 ft 464 kts 263°
2026-04-20 13:40 22.94130 68.29059 36842 ft 469 kts 255°
2026-04-20 13:40 22.92467 68.22202 36841 ft 470 kts 260°
2026-04-20 13:41 22.91868 68.15209 36838 ft 463 kts 275°
2026-04-20 13:41 22.92338 68.11780 36841 ft 458 kts 287°
2026-04-20 13:41 22.93391 68.08551 36876 ft 454 kts 292°
2026-04-20 13:42 22.95162 68.01980 36843 ft 457 kts 275°
2026-04-20 13:42 22.94627 67.95102 36841 ft 467 kts 260°
2026-04-20 13:42 22.93937 67.91643 36841 ft 470 kts 259°
2026-04-20 13:43 22.92725 67.84680 36845 ft 468 kts 266°
2026-04-20 13:43 22.92831 67.77700 36843 ft 460 kts 283°
2026-04-20 13:44 22.94798 67.71179 36871 ft 457 kts 286°
2026-04-20 13:44 22.95270 67.67776 36817 ft 458 kts 272°
2026-04-20 13:44 22.95019 67.64314 36848 ft 464 kts 262°
2026-04-20 13:45 22.93260 67.57486 36846 ft 475 kts 252°
2026-04-20 13:45 22.91044 67.50732 36846 ft 475 kts 255°
2026-04-20 13:46 22.89854 67.43764 36845 ft 467 kts 271°
2026-04-20 13:46 22.90094 67.40286 36845 ft 460 kts 284°
2026-04-20 13:46 22.91064 67.37025 36857 ft 452 kts 297°
2026-04-20 13:47 22.93837 67.30918 36858 ft 453 kts 290°
2026-04-20 13:47 22.95065 67.24186 36852 ft 460 kts 278°
2026-04-20 13:48 22.95586 67.17249 36856 ft 463 kts 274°
2026-04-20 13:48 22.95742 67.10251 36851 ft 464 kts 272°
2026-04-20 13:49 22.95768 67.03247 36862 ft 465 kts 271°
2026-04-20 13:49 22.95757 66.96241 36857 ft 464 kts 272°
2026-04-20 13:50 22.95813 66.89237 36863 ft 464 kts 272°
2026-04-20 13:50 22.95855 66.82228 36863 ft 464 kts 272°
2026-04-20 13:51 22.95893 66.75227 36864 ft 464 kts 272°
2026-04-20 13:51 22.95928 66.68233 36864 ft 464 kts 271°
2026-04-20 13:52 22.95961 66.61231 36864 ft 464 kts 271°
2026-04-20 13:52 22.95990 66.54227 36863 ft 464 kts 271°
2026-04-20 13:53 22.96016 66.47224 36858 ft 464 kts 271°
2026-04-20 13:53 22.96039 66.40216 36866 ft 464 kts 271°
2026-04-20 13:54 22.96059 66.33217 36853 ft 464 kts 271°
2026-04-20 13:54 22.96076 66.26258 36863 ft 464 kts 271°
2026-04-20 13:55 22.96090 66.19255 36862 ft 464 kts 271°
2026-04-20 13:55 22.96101 66.12258 36862 ft 464 kts 271°
2026-04-20 13:56 22.96108 66.05256 36869 ft 464 kts 271°
2026-04-20 13:56 22.96113 65.98265 36867 ft 464 kts 271°
2026-04-20 13:57 22.96114 65.91269 36866 ft 463 kts 271°
2026-04-20 13:57 22.96113 65.84281 36867 ft 463 kts 271°
2026-04-20 13:58 22.96108 65.77289 36871 ft 463 kts 271°
2026-04-20 13:58 22.96101 65.70302 36860 ft 463 kts 271°
2026-04-20 13:59 22.96090 65.63325 36856 ft 462 kts 271°
2026-04-20 13:59 22.96077 65.56393 36866 ft 462 kts 270°
2026-04-20 14:00 22.96063 65.50549 36864 ft 462 kts 270°
2026-04-20 14:00 22.96041 65.42459 36868 ft 462 kts 270°
2026-04-20 14:01 22.96017 65.35495 36873 ft 461 kts 270°
2026-04-20 14:01 22.95996 65.29666 36869 ft 461 kts 270°
2026-04-20 14:02 22.95968 65.22708 36872 ft 461 kts 270°
2026-04-20 14:02 22.95936 65.15755 36866 ft 461 kts 270°
2026-04-20 14:03 22.95902 65.08806 36867 ft 461 kts 270°
2026-04-20 14:03 22.95865 65.01850 36869 ft 461 kts 270°
2026-04-20 14:04 22.95826 64.94895 36867 ft 461 kts 270°
2026-04-20 14:04 22.95783 64.87943 36865 ft 461 kts 270°
2026-04-20 14:05 22.95798 64.80989 36841 ft 460 kts 273°
2026-04-20 14:05 22.96563 64.74172 36896 ft 458 kts 279°
2026-04-20 14:06 22.97426 64.67313 36859 ft 458 kts 278°
2026-04-20 14:06 22.98185 64.60444 36865 ft 459 kts 277°
2026-04-20 14:07 22.98912 64.53556 36863 ft 459 kts 277°
2026-04-20 14:07 22.99635 64.46668 36863 ft 459 kts 277°
2026-04-20 14:08 23.00355 64.39777 36864 ft 460 kts 277°
2026-04-20 14:08 23.01073 64.32883 36861 ft 460 kts 277°
2026-04-20 14:09 23.01788 64.25986 36862 ft 460 kts 277°
2026-04-20 14:09 23.02500 64.19088 36863 ft 460 kts 277°
2026-04-20 14:10 23.03209 64.12185 36863 ft 460 kts 277°
2026-04-20 14:10 23.03915 64.05286 36866 ft 460 kts 277°
2026-04-20 14:11 23.04619 63.98379 36863 ft 460 kts 277°
2026-04-20 14:11 23.05319 63.91479 36862 ft 460 kts 277°
2026-04-20 14:12 23.05582 63.84552 36864 ft 463 kts 261°
2026-04-20 14:12 23.03640 63.77852 36853 ft 470 kts 247°
2026-04-20 14:13 23.00827 63.71459 36854 ft 473 kts 246°
2026-04-20 14:13 22.98535 63.64791 36852 ft 469 kts 258°
2026-04-20 14:14 22.98111 63.57834 36854 ft 460 kts 280°
2026-04-20 14:14 22.98904 63.54506 36848 ft 454 kts 294°
2026-04-20 14:14 23.00313 63.51462 36903 ft 451 kts 300°
2026-04-20 14:15 23.03409 63.45541 36866 ft 450 kts 296°
2026-04-20 14:15 23.04537 63.42372 36855 ft 452 kts 285°
2026-04-20 14:15 23.05141 63.39013 36852 ft 455 kts 278°
2026-04-20 14:16 23.05596 63.32114 36852 ft 460 kts 275°
2026-04-20 14:16 23.06110 63.25204 36878 ft 459 kts 274°
2026-04-20 14:17 23.06338 63.18273 36856 ft 460 kts 272°
2026-04-20 14:17 23.06439 63.11324 36860 ft 460 kts 272°
2026-04-20 14:18 23.06496 63.04371 36856 ft 460 kts 271°
2026-04-20 14:18 23.06548 62.97424 36858 ft 460 kts 271°
2026-04-20 14:19 23.06598 62.90474 36858 ft 460 kts 271°
2026-04-20 14:19 23.06644 62.83527 36859 ft 460 kts 271°
2026-04-20 14:20 23.06688 62.76574 36856 ft 460 kts 271°
2026-04-20 14:20 23.06728 62.69621 36859 ft 461 kts 272°
2026-04-20 14:21 23.06765 62.62658 36858 ft 461 kts 271°
2026-04-20 14:21 23.06799 62.55694 36856 ft 461 kts 271°
2026-04-20 14:22 23.06831 62.48730 36859 ft 462 kts 272°
2026-04-20 14:22 23.06859 62.41801 36859 ft 462 kts 272°
2026-04-20 14:23 23.06884 62.34819 36858 ft 463 kts 272°
2026-04-20 14:23 23.06906 62.27833 36855 ft 463 kts 272°
2026-04-20 14:24 23.06926 62.20837 36856 ft 463 kts 272°
2026-04-20 14:24 23.06941 62.13843 36855 ft 463 kts 272°
2026-04-20 14:25 23.06954 62.06842 36856 ft 464 kts 272°
2026-04-20 14:25 23.06964 61.99833 36855 ft 464 kts 272°
2026-04-20 14:26 23.06971 61.92824 36854 ft 464 kts 272°
2026-04-20 14:26 23.06976 61.85812 36855 ft 464 kts 272°
2026-04-20 14:27 23.06978 61.78796 36851 ft 465 kts 272°
2026-04-20 14:27 23.06971 61.71772 36847 ft 465 kts 272°
2026-04-20 14:28 23.06957 61.64749 36851 ft 465 kts 272°
2026-04-20 14:28 23.06941 61.57733 36849 ft 465 kts 272°
2026-04-20 14:29 23.06923 61.50706 36851 ft 465 kts 272°
2026-04-20 14:29 23.06669 61.47204 36854 ft 469 kts 259°
2026-04-20 14:29 23.05698 61.43807 36838 ft 473 kts 249°
2026-04-20 14:30 23.02482 61.37496 36836 ft 483 kts 238°
2026-04-20 14:30 22.98886 61.31332 36838 ft 482 kts 243°
2026-04-20 14:31 22.96286 61.24708 36839 ft 474 kts 258°
2026-04-20 14:31 22.95753 61.21203 36838 ft 467 kts 270°
2026-04-20 14:31 22.95919 61.17732 36837 ft 458 kts 284°
2026-04-20 14:32 22.97901 61.11248 36859 ft 452 kts 293°
2026-04-20 14:32 22.99588 61.04691 36836 ft 456 kts 277°
2026-04-20 14:33 22.99539 60.97763 36837 ft 463 kts 268°
2026-04-20 14:33 22.99051 60.90786 36857 ft 464 kts 266°
2026-04-20 14:34 22.98283 60.83825 36839 ft 464 kts 264°
2026-04-20 14:34 22.97389 60.76887 36841 ft 464 kts 263°
2026-04-20 14:35 22.96452 60.69961 36845 ft 463 kts 263°
2026-04-20 14:35 22.95513 60.63052 36843 ft 462 kts 263°
2026-04-20 14:36 22.94573 60.56153 36845 ft 462 kts 263°
2026-04-20 14:36 22.93638 60.49317 36846 ft 461 kts 262°
2026-04-20 14:37 22.92696 60.42454 36840 ft 460 kts 262°
2026-04-20 14:37 22.91753 60.35601 36842 ft 459 kts 262°
2026-04-20 14:38 22.90809 60.28768 36840 ft 458 kts 262°
2026-04-20 14:38 22.89862 60.21942 36834 ft 458 kts 262°
2026-04-20 14:39 22.88905 60.15126 36837 ft 457 kts 262°
2026-04-20 14:39 22.87946 60.08302 36835 ft 457 kts 262°
2026-04-20 14:40 22.86986 60.01493 36834 ft 457 kts 262°
2026-04-20 14:40 22.86022 59.94674 36836 ft 457 kts 262°
2026-04-20 14:41 22.85059 59.87865 36831 ft 457 kts 262°
2026-04-20 14:41 22.84115 59.81050 36830 ft 457 kts 262°
2026-04-20 14:42 22.83166 59.74236 36827 ft 457 kts 263°
2026-04-20 14:42 22.82214 59.67423 36825 ft 457 kts 263°
2026-04-20 14:43 22.81258 59.60611 36823 ft 457 kts 263°
2026-04-20 14:43 22.80301 59.53807 36829 ft 457 kts 263°
2026-04-20 14:44 22.79347 59.47052 36830 ft 456 kts 263°
2026-04-20 14:44 22.78386 59.40259 36836 ft 456 kts 263°
2026-04-20 14:45 22.77415 59.33434 36841 ft 455 kts 263°
2026-04-20 14:45 22.76447 59.26664 36845 ft 455 kts 263°
2026-04-20 14:46 22.75478 59.19899 36846 ft 454 kts 263°
2026-04-20 14:46 22.74514 59.13186 36865 ft 454 kts 263°
2026-04-20 14:47 22.73538 59.06431 36848 ft 453 kts 264°
2026-04-20 14:48 22.72078 58.96351 36847 ft 451 kts 264°
2026-04-20 14:48 22.71103 58.89642 36853 ft 450 kts 264°
2026-04-20 14:49 22.70288 58.84038 36843 ft 449 kts 264°
2026-04-20 14:49 22.69314 58.77371 36846 ft 448 kts 264°
2026-04-20 14:50 22.68344 58.70752 36858 ft 447 kts 264°
2026-04-20 14:50 22.67369 58.64113 36838 ft 446 kts 264°
2026-04-20 14:51 22.66677 58.57475 36826 ft 440 kts 272°
2026-04-20 14:51 22.67372 58.50991 36831 ft 430 kts 289°
2026-04-20 14:51 22.68528 58.48038 36829 ft 424 kts 301°
2026-04-20 14:52 22.70006 58.45286 36882 ft 424 kts 295°
2026-04-20 14:52 22.70960 58.42267 36818 ft 425 kts 284°
2026-04-20 14:52 22.71428 58.39101 36833 ft 429 kts 278°
2026-04-20 14:53 22.71834 58.32606 36831 ft 433 kts 277°
2026-04-20 14:53 22.72942 58.26266 36834 ft 425 kts 291°
2026-04-20 14:53 22.74148 58.23368 36836 ft 421 kts 302°
2026-04-20 14:54 22.75818 58.20774 36878 ft 420 kts 306°
2026-04-20 14:54 22.77271 58.18037 36825 ft 420 kts 292°
2026-04-20 14:54 22.78035 58.14977 36842 ft 424 kts 280°
2026-04-20 14:55 22.78098 58.08512 36847 ft 435 kts 268°
2026-04-20 14:55 22.77593 58.01966 36844 ft 435 kts 271°
2026-04-20 14:56 22.77968 57.95506 36845 ft 427 kts 284°
2026-04-20 14:56 22.78823 57.92455 36846 ft 421 kts 295°
2026-04-20 14:56 22.80231 57.89745 36863 ft 417 kts 307°
2026-04-20 14:57 22.84122 57.85055 36870 ft 415 kts 306°
2026-04-20 14:57 22.86878 57.79585 36861 ft 417 kts 293°
2026-04-20 14:58 22.89006 57.73758 36897 ft 419 kts 291°
2026-04-20 14:58 22.90818 57.67744 36877 ft 420 kts 288°
2026-04-20 14:59 22.92425 57.61648 36888 ft 421 kts 287°
2026-04-20 14:59 22.93967 57.55529 36898 ft 420 kts 287°
2026-04-20 15:00 22.95488 57.49409 36904 ft 420 kts 287°
2026-04-20 15:00 22.97006 57.43292 36913 ft 420 kts 287°
2026-04-20 15:01 22.98521 57.37176 36914 ft 419 kts 287°
2026-04-20 15:01 22.99170 57.34094 36928 ft 422 kts 276°
2026-04-20 15:01 22.98825 57.30915 36901 ft 433 kts 255°
2026-04-20 15:01 22.97418 57.27983 36900 ft 448 kts 238°
2026-04-20 15:02 22.95230 57.25511 36901 ft 463 kts 224°
2026-04-20 15:02 22.92527 57.23536 36890 ft 475 kts 214°
2026-04-20 15:02 22.89533 57.21946 36884 ft 483 kts 208°
2026-04-20 15:03 22.83214 57.19224 36876 ft 492 kts 207°
2026-04-20 15:03 22.77114 57.15974 36867 ft 484 kts 218°
2026-04-20 15:04 22.72106 57.11367 36859 ft 463 kts 238°
2026-04-20 15:04 22.70403 57.08480 36876 ft 449 kts 251°
2026-04-20 15:04 22.69424 57.05335 36873 ft 435 kts 265°
2026-04-20 15:05 22.69280 56.98919 36879 ft 424 kts 275°
2026-04-20 15:05 22.69436 56.92552 36860 ft 423 kts 275°
2026-04-20 15:06 22.69614 56.86240 36855 ft 422 kts 275°
2026-04-20 15:06 22.69798 56.79836 36865 ft 422 kts 275°
2026-04-20 15:07 22.69904 56.73521 36857 ft 425 kts 269°
2026-04-20 15:07 22.68471 56.67230 36836 ft 439 kts 254°
2026-04-20 15:08 22.66176 56.61020 36837 ft 442 kts 253°
2026-04-20 15:08 22.63624 56.54933 36833 ft 445 kts 250°
2026-04-20 15:09 22.60829 56.48933 36833 ft 447 kts 249°
2026-04-20 15:09 22.57978 56.43000 36827 ft 447 kts 248°
2026-04-20 15:10 22.55096 56.37050 36817 ft 447 kts 248°
2026-04-20 15:10 22.52212 56.31094 36820 ft 446 kts 248°
2026-04-20 15:11 22.49331 56.25153 36823 ft 446 kts 248°
2026-04-20 15:11 22.46448 56.19213 36816 ft 446 kts 248°
2026-04-20 15:12 22.43563 56.13278 36813 ft 446 kts 248°
2026-04-20 15:12 22.40680 56.07352 36811 ft 445 kts 248°
2026-04-20 15:13 22.37795 56.01433 36807 ft 445 kts 248°
2026-04-20 15:13 22.34896 55.95526 36810 ft 445 kts 248°
2026-04-20 15:14 22.32001 55.89630 36807 ft 444 kts 248°
2026-04-20 15:14 22.29103 55.83734 36808 ft 444 kts 248°
2026-04-20 15:15 22.26209 55.77852 36804 ft 443 kts 249°
2026-04-20 15:15 22.23329 55.71982 36806 ft 443 kts 249°
2026-04-20 15:16 22.20445 55.66111 36803 ft 442 kts 249°
2026-04-20 15:16 22.17565 55.60253 36799 ft 441 kts 249°
2026-04-20 15:17 22.14986 55.54348 36790 ft 433 kts 256°
2026-04-20 15:17 22.13801 55.48145 36789 ft 415 kts 274°
2026-04-20 15:17 22.14063 55.45094 36782 ft 404 kts 287°
2026-04-20 15:18 22.15007 55.42277 36813 ft 398 kts 297°
2026-04-20 15:18 22.16573 55.36579 36775 ft 404 kts 275°
2026-04-20 15:18 22.16372 55.33522 36791 ft 415 kts 265°
2026-04-20 15:19 22.15748 55.30454 36793 ft 422 kts 261°
2026-04-20 15:19 22.14268 55.24311 36786 ft 421 kts 265°
2026-04-20 15:20 22.13897 55.18134 36782 ft 406 kts 280°
2026-04-20 15:20 22.14494 55.15198 36787 ft 398 kts 292°
2026-04-20 15:20 22.15719 55.12546 36806 ft 394 kts 302°
2026-04-20 15:21 22.18162 55.07268 36790 ft 395 kts 289°
2026-04-20 15:21 22.19544 55.01488 36805 ft 401 kts 284°
2026-04-20 15:22 22.20444 54.95542 36796 ft 403 kts 280°
2026-04-20 15:22 22.21049 54.89520 36799 ft 404 kts 279°
2026-04-20 15:23 22.21560 54.83479 36799 ft 404 kts 278°
2026-04-20 15:23 22.22037 54.77431 36800 ft 405 kts 278°
2026-04-20 15:24 22.22510 54.71382 36798 ft 404 kts 278°
2026-04-20 15:24 22.22978 54.65349 36802 ft 403 kts 278°
2026-04-20 15:25 22.23445 54.59319 36799 ft 403 kts 278°
2026-04-20 15:25 22.23908 54.53292 36804 ft 403 kts 278°
2026-04-20 15:26 22.24366 54.47306 36813 ft 403 kts 278°
2026-04-20 15:26 22.24825 54.41288 36803 ft 402 kts 278°
2026-04-20 15:27 22.25283 54.35238 36806 ft 402 kts 278°
2026-04-20 15:27 22.25733 54.29277 36808 ft 401 kts 278°
2026-04-20 15:28 22.26186 54.23246 36806 ft 401 kts 278°
2026-04-20 15:28 22.26630 54.17292 36810 ft 400 kts 278°
2026-04-20 15:29 22.27074 54.11303 36799 ft 401 kts 278°
2026-04-20 15:29 22.27519 54.05307 36797 ft 399 kts 278°
2026-04-20 15:30 22.27959 53.99336 36805 ft 399 kts 278°
2026-04-20 15:30 22.28395 53.93361 36806 ft 399 kts 278°
2026-04-20 15:31 22.28832 53.87387 36797 ft 399 kts 278°
2026-04-20 15:31 22.29265 53.81416 36809 ft 399 kts 278°
2026-04-20 15:32 22.29695 53.75447 36807 ft 398 kts 278°
2026-04-20 15:32 22.30123 53.69487 36807 ft 398 kts 278°
2026-04-20 15:33 22.30548 53.63529 36807 ft 398 kts 277°
2026-04-20 15:33 22.30970 53.57573 36805 ft 398 kts 277°
2026-04-20 15:34 22.31391 53.51624 36804 ft 397 kts 277°
2026-04-20 15:34 22.31808 53.45677 36805 ft 397 kts 277°
2026-04-20 15:35 22.32224 53.39737 36800 ft 397 kts 277°
2026-04-20 15:35 22.32637 53.33796 36801 ft 397 kts 277°
2026-04-20 15:36 22.32978 53.28856 36798 ft 396 kts 277°
2026-04-20 15:36 22.33387 53.22920 36805 ft 396 kts 277°
2026-04-20 15:37 22.33794 53.16983 36803 ft 396 kts 277°
2026-04-20 15:37 22.34198 53.11048 36794 ft 396 kts 277°
2026-04-20 15:38 22.34600 53.05113 36793 ft 396 kts 277°
2026-04-20 15:38 22.35000 52.99179 36803 ft 396 kts 277°
2026-04-20 15:39 22.35397 52.93250 36790 ft 396 kts 277°
2026-04-20 15:39 22.35790 52.87317 36791 ft 396 kts 277°
2026-04-20 15:40 22.36185 52.81388 36792 ft 396 kts 277°
2026-04-20 15:40 22.36577 52.75453 36789 ft 396 kts 277°
2026-04-20 15:41 22.36964 52.69522 36787 ft 396 kts 277°
2026-04-20 15:41 22.37352 52.63589 36789 ft 396 kts 277°
2026-04-20 15:42 22.37737 52.57653 36793 ft 396 kts 277°
2026-04-20 15:42 22.38119 52.51713 36787 ft 396 kts 277°
2026-04-20 15:43 22.38500 52.45779 36788 ft 396 kts 277°
2026-04-20 15:43 22.38876 52.39884 36789 ft 396 kts 276°
2026-04-20 15:44 22.39253 52.33956 36784 ft 395 kts 276°
2026-04-20 15:44 22.39627 52.28027 36787 ft 395 kts 276°
2026-04-20 15:45 22.39999 52.22102 36785 ft 395 kts 276°
2026-04-20 15:45 22.40369 52.16176 36784 ft 395 kts 276°
2026-04-20 15:46 22.40801 52.10257 36786 ft 394 kts 278°
2026-04-20 15:46 22.41304 52.04357 36784 ft 394 kts 277°
2026-04-20 15:47 22.41787 51.98454 36781 ft 394 kts 277°
2026-04-20 15:47 22.42268 51.92556 36786 ft 394 kts 277°
2026-04-20 15:48 22.42747 51.86648 36783 ft 394 kts 277°
2026-04-20 15:48 22.43224 51.80749 36781 ft 394 kts 277°
2026-04-20 15:49 22.43697 51.74845 36782 ft 394 kts 277°
2026-04-20 15:49 22.44170 51.68945 36781 ft 394 kts 277°
2026-04-20 15:50 22.44639 51.63045 36784 ft 394 kts 277°
2026-04-20 15:50 22.45106 51.57153 36782 ft 393 kts 277°
2026-04-20 15:51 22.45568 51.51301 36780 ft 393 kts 277°
2026-04-20 15:51 22.46031 51.45411 36784 ft 393 kts 277°
2026-04-20 15:52 22.46490 51.39523 36785 ft 393 kts 277°
2026-04-20 15:52 22.46948 51.33640 36788 ft 393 kts 277°
2026-04-20 15:53 22.47630 51.24812 36781 ft 393 kts 277°
2026-04-20 15:53 22.48083 51.18925 36781 ft 393 kts 277°
2026-04-20 15:54 22.48533 51.13044 36785 ft 393 kts 277°
2026-04-20 15:54 22.48981 51.07157 36784 ft 393 kts 277°
2026-04-20 15:55 22.49428 51.01264 36782 ft 393 kts 277°
2026-04-20 15:55 22.49871 50.95372 36782 ft 393 kts 277°
2026-04-20 15:56 22.50314 50.89472 36781 ft 394 kts 277°
2026-04-20 15:56 22.50755 50.83569 36783 ft 394 kts 277°
2026-04-20 15:57 22.51194 50.77662 36782 ft 395 kts 277°
2026-04-20 15:57 22.51631 50.71741 36778 ft 395 kts 277°
2026-04-20 15:58 22.52068 50.65814 36782 ft 396 kts 277°
2026-04-20 15:58 22.52502 50.59877 36780 ft 396 kts 277°
2026-04-20 15:59 22.52934 50.53941 36775 ft 396 kts 277°
2026-04-20 15:59 22.53365 50.47996 36779 ft 397 kts 277°
2026-04-20 16:00 22.53793 50.42043 36781 ft 397 kts 277°
2026-04-20 16:00 22.54218 50.36128 36780 ft 397 kts 277°
2026-04-20 16:01 22.54642 50.30175 36779 ft 397 kts 277°
2026-04-20 16:01 22.55064 50.24225 36782 ft 397 kts 277°
2026-04-20 16:02 22.55484 50.18269 36780 ft 397 kts 277°
2026-04-20 16:02 22.55902 50.12314 36777 ft 397 kts 277°
2026-04-20 16:03 22.56318 50.06357 36775 ft 397 kts 276°
2026-04-20 16:03 22.56731 50.00405 36775 ft 397 kts 276°
2026-04-20 16:04 22.57143 49.94442 36774 ft 397 kts 276°
2026-04-20 16:04 22.57553 49.88483 36772 ft 397 kts 276°
2026-04-20 16:05 22.57960 49.82522 36776 ft 397 kts 276°
2026-04-20 16:05 22.58365 49.76564 36769 ft 397 kts 276°
2026-04-20 16:06 22.58768 49.70606 36770 ft 397 kts 276°
2026-04-20 16:06 22.59167 49.64658 36770 ft 397 kts 276°
2026-04-20 16:07 22.59566 49.58698 36766 ft 397 kts 276°
2026-04-20 16:07 22.59962 49.52742 36771 ft 396 kts 276°
2026-04-20 16:08 22.60355 49.46798 36761 ft 396 kts 276°
2026-04-20 16:08 22.60745 49.40866 36768 ft 395 kts 276°
2026-04-20 16:09 22.61132 49.34939 36765 ft 395 kts 276°
2026-04-20 16:09 22.61516 49.29024 36767 ft 394 kts 276°
2026-04-20 16:10 22.61899 49.23113 36768 ft 393 kts 276°
2026-04-20 16:10 22.62277 49.17216 36765 ft 393 kts 275°
2026-04-20 16:11 22.62651 49.11362 36767 ft 392 kts 275°
2026-04-20 16:11 22.63025 49.05479 36763 ft 392 kts 275°
2026-04-20 16:12 22.63396 48.99596 36763 ft 392 kts 275°
2026-04-20 16:12 22.63765 48.93715 36758 ft 392 kts 275°
2026-04-20 16:13 22.64132 48.87831 36763 ft 392 kts 275°
2026-04-20 16:13 22.64497 48.81944 36764 ft 392 kts 275°
2026-04-20 16:14 22.64860 48.76058 36760 ft 392 kts 275°
2026-04-20 16:14 22.65221 48.70172 36758 ft 392 kts 275°
2026-04-20 16:15 22.65581 48.64279 36760 ft 393 kts 275°
2026-04-20 16:15 22.65938 48.58379 36760 ft 393 kts 275°
2026-04-20 16:16 22.66293 48.52479 36762 ft 393 kts 275°
2026-04-20 16:16 22.66647 48.46573 36758 ft 393 kts 275°
2026-04-20 16:17 22.66998 48.40671 36765 ft 393 kts 275°
2026-04-20 16:17 22.67348 48.34766 36763 ft 393 kts 275°
2026-04-20 16:18 22.67695 48.28859 36764 ft 393 kts 275°
2026-04-20 16:18 22.68038 48.22996 36762 ft 393 kts 275°
2026-04-20 16:19 22.68382 48.17097 36761 ft 393 kts 275°
2026-04-20 16:19 22.68723 48.11193 36760 ft 393 kts 275°
2026-04-20 16:20 22.69061 48.05297 36760 ft 393 kts 275°
2026-04-20 16:20 22.69536 47.99412 36771 ft 392 kts 276°
2026-04-20 16:21 22.70042 47.93537 36762 ft 392 kts 276°
2026-04-20 16:21 22.70530 47.87663 36761 ft 392 kts 276°
2026-04-20 16:22 22.71018 47.81785 36761 ft 392 kts 276°
2026-04-20 16:22 22.71502 47.75917 36760 ft 391 kts 276°
2026-04-20 16:23 22.71985 47.70049 36763 ft 391 kts 276°
2026-04-20 16:23 22.72461 47.64220 36769 ft 391 kts 276°
2026-04-20 16:24 22.72939 47.58355 36763 ft 391 kts 276°
2026-04-20 16:24 22.73414 47.52503 36769 ft 390 kts 276°
2026-04-20 16:25 22.73884 47.46670 36773 ft 390 kts 275°
2026-04-20 16:25 22.74355 47.40802 36772 ft 389 kts 276°
2026-04-20 16:26 22.74823 47.34962 36774 ft 389 kts 275°
2026-04-20 16:26 22.75209 47.30107 36780 ft 389 kts 275°
2026-04-20 16:27 22.75672 47.24269 36778 ft 389 kts 275°
2026-04-20 16:27 22.76134 47.18431 36785 ft 389 kts 275°
2026-04-20 16:28 22.76599 47.12596 36780 ft 389 kts 275°
2026-04-20 16:28 22.77062 47.06766 36781 ft 389 kts 275°
2026-04-20 16:29 22.77523 47.00930 36785 ft 388 kts 275°
2026-04-20 16:29 22.77982 46.95101 36784 ft 388 kts 275°
2026-04-20 16:30 22.78438 46.89273 36783 ft 388 kts 275°
2026-04-20 16:30 22.78893 46.83446 36786 ft 388 kts 275°
2026-04-20 16:31 22.79345 46.77621 36783 ft 388 kts 275°
2026-04-20 16:31 22.79795 46.71793 36787 ft 388 kts 275°
2026-04-20 16:32 22.80241 46.65969 36795 ft 388 kts 275°
2026-04-20 16:32 22.80687 46.60147 36792 ft 388 kts 275°
2026-04-20 16:33 22.81130 46.54323 36798 ft 388 kts 275°
2026-04-20 16:33 22.81573 46.48496 36800 ft 388 kts 275°
2026-04-20 16:34 22.82011 46.42675 36800 ft 387 kts 275°
2026-04-20 16:34 22.82446 46.36854 36802 ft 388 kts 275°
2026-04-20 16:35 22.82878 46.31033 36795 ft 387 kts 275°
2026-04-20 16:35 22.83308 46.25210 36795 ft 388 kts 275°
2026-04-20 16:36 22.83736 46.19386 36788 ft 388 kts 275°
2026-04-20 16:36 22.84162 46.13562 36788 ft 388 kts 275°
2026-04-20 16:37 22.84586 46.07737 36782 ft 388 kts 275°
2026-04-20 16:37 22.85008 46.01905 36778 ft 388 kts 274°
2026-04-20 16:38 22.85428 45.96074 36778 ft 388 kts 275°
2026-04-20 16:38 22.85842 45.90293 36777 ft 387 kts 274°
2026-04-20 16:39 22.86257 45.84472 36774 ft 387 kts 274°
2026-04-20 16:39 22.86670 45.78651 36779 ft 387 kts 274°
2026-04-20 16:40 22.87080 45.72834 36779 ft 387 kts 274°
2026-04-20 16:40 22.87488 45.67017 36778 ft 387 kts 274°
2026-04-20 16:41 22.87895 45.61202 36780 ft 386 kts 274°
2026-04-20 16:41 22.88298 45.55392 36785 ft 386 kts 274°
2026-04-20 16:42 22.88699 45.49587 36790 ft 386 kts 274°
2026-04-20 16:42 22.89099 45.43776 36791 ft 386 kts 274°
2026-04-20 16:43 22.89496 45.37967 36787 ft 386 kts 274°
2026-04-20 16:43 22.89890 45.32154 36795 ft 386 kts 274°
2026-04-20 16:44 22.90284 45.26344 36794 ft 386 kts 274°
2026-04-20 16:44 22.90674 45.20539 36794 ft 386 kts 274°
2026-04-20 16:45 22.91063 45.14727 36794 ft 386 kts 274°
2026-04-20 16:45 22.91451 45.08913 36800 ft 386 kts 274°
2026-04-20 16:46 22.91833 45.03104 36802 ft 386 kts 274°
2026-04-20 16:46 22.92212 44.97301 36803 ft 385 kts 274°
2026-04-20 16:47 22.92593 44.91500 36804 ft 385 kts 274°
2026-04-20 16:47 22.92967 44.85737 36808 ft 386 kts 274°
2026-04-20 16:48 22.93342 44.79937 36808 ft 386 kts 274°
2026-04-20 16:48 22.93714 44.74131 36804 ft 386 kts 274°
2026-04-20 16:49 22.94086 44.68323 36814 ft 386 kts 274°
2026-04-20 16:49 22.94818 44.62568 36810 ft 385 kts 282°
2026-04-20 16:50 22.96797 44.57163 36862 ft 386 kts 290°
2026-04-20 16:50 22.98774 44.51763 36818 ft 384 kts 287°
2026-04-20 16:51 23.00555 44.46284 36825 ft 385 kts 286°
2026-04-20 16:51 23.02273 44.40782 36820 ft 385 kts 285°
2026-04-20 16:52 23.03969 44.35267 36830 ft 385 kts 285°
2026-04-20 16:52 23.05663 44.29749 36833 ft 385 kts 285°
2026-04-20 16:53 23.07355 44.24230 36834 ft 385 kts 285°
2026-04-20 16:53 23.09034 44.18745 36838 ft 385 kts 285°
2026-04-20 16:54 23.10723 44.13223 36843 ft 385 kts 285°
2026-04-20 16:54 23.12408 44.07704 36846 ft 385 kts 285°
2026-04-20 16:55 23.14090 44.02186 36853 ft 385 kts 285°
2026-04-20 16:55 23.15770 43.96668 36853 ft 384 kts 285°
2026-04-20 16:56 23.17446 43.91156 36862 ft 384 kts 285°
2026-04-20 16:56 23.19119 43.85648 36867 ft 384 kts 285°
2026-04-20 16:57 23.20790 43.80133 36871 ft 384 kts 285°
2026-04-20 16:57 23.22459 43.74619 36880 ft 384 kts 285°
2026-04-20 16:58 23.24129 43.69098 36883 ft 384 kts 285°
2026-04-20 16:58 23.25795 43.63582 36892 ft 384 kts 285°
2026-04-20 16:59 23.27460 43.58060 36902 ft 384 kts 285°
2026-04-20 16:59 23.29124 43.52530 36910 ft 385 kts 285°
2026-04-20 17:00 23.31618 43.44233 36924 ft 385 kts 284°
2026-04-20 17:01 23.33279 43.38698 36922 ft 385 kts 285°
2026-04-20 17:01 23.34938 43.33163 36938 ft 385 kts 284°
2026-04-20 17:02 23.36594 43.27628 36948 ft 385 kts 284°
2026-04-20 17:02 23.38249 43.22089 36953 ft 385 kts 284°
2026-04-20 17:03 23.39902 43.16548 36954 ft 385 kts 284°
2026-04-20 17:03 23.41553 43.10995 36965 ft 386 kts 284°
2026-04-20 17:04 23.43192 43.05473 36968 ft 386 kts 284°
2026-04-20 17:04 23.44843 42.99903 36972 ft 386 kts 284°
2026-04-20 17:05 23.46492 42.94331 36977 ft 387 kts 284°
2026-04-20 17:05 23.48144 42.88743 36974 ft 388 kts 284°
2026-04-20 17:06 23.49795 42.83149 36972 ft 388 kts 284°
2026-04-20 17:06 23.51445 42.77547 36979 ft 389 kts 284°
2026-04-20 17:07 23.53099 42.71940 36981 ft 389 kts 284°
2026-04-20 17:07 23.54751 42.66330 36975 ft 389 kts 284°
2026-04-20 17:08 23.56400 42.60723 36976 ft 388 kts 284°
2026-04-20 17:08 23.58046 42.55115 36975 ft 388 kts 284°
2026-04-20 17:09 23.59691 42.49506 36978 ft 388 kts 283°
2026-04-20 17:09 23.61334 42.43897 36975 ft 388 kts 283°
2026-04-20 17:10 23.62970 42.38298 36975 ft 387 kts 283°
2026-04-20 17:10 23.64604 42.32701 36975 ft 387 kts 283°
2026-04-20 17:11 23.66232 42.27105 36971 ft 387 kts 283°
2026-04-20 17:11 23.67845 42.21544 36970 ft 387 kts 283°
2026-04-20 17:12 23.69467 42.15949 36965 ft 387 kts 283°
2026-04-20 17:12 23.71087 42.10349 36962 ft 387 kts 283°
2026-04-20 17:13 23.72705 42.04748 36961 ft 387 kts 283°
2026-04-20 17:13 23.74321 41.99146 36958 ft 387 kts 283°
2026-04-20 17:14 23.75944 41.93538 36958 ft 387 kts 283°
2026-04-20 17:14 23.77563 41.87929 36957 ft 388 kts 283°
2026-04-20 17:15 23.79182 41.82314 36954 ft 388 kts 283°
2026-04-20 17:15 23.80526 41.77645 36949 ft 388 kts 283°
2026-04-20 17:16 23.82140 41.72029 36949 ft 388 kts 283°
2026-04-20 17:16 23.83752 41.66409 36945 ft 388 kts 283°
2026-04-20 17:17 23.85363 41.60786 36947 ft 388 kts 283°
2026-04-20 17:17 23.86968 41.55166 36939 ft 387 kts 283°
2026-04-20 17:18 23.88566 41.49543 36940 ft 387 kts 283°
2026-04-20 17:18 23.90161 41.43927 36935 ft 387 kts 283°
2026-04-20 17:19 23.91752 41.38314 36935 ft 387 kts 282°
2026-04-20 17:19 23.93343 41.32706 36935 ft 386 kts 282°
2026-04-20 17:20 23.94933 41.27099 36931 ft 386 kts 282°
2026-04-20 17:20 23.96520 41.21494 36924 ft 386 kts 282°
2026-04-20 17:21 23.98104 41.15890 36922 ft 385 kts 282°
2026-04-20 17:21 23.99684 41.10292 36921 ft 385 kts 282°
2026-04-20 17:22 24.01262 41.04692 36921 ft 385 kts 282°
2026-04-20 17:22 24.02839 40.99087 36915 ft 386 kts 282°
2026-04-20 17:23 24.04414 40.93481 36910 ft 386 kts 282°
2026-04-20 17:23 24.05980 40.87900 36939 ft 379 kts 282°
2026-04-20 17:24 24.07519 40.82404 36915 ft 378 kts 282°
2026-04-20 17:24 24.09058 40.76904 36912 ft 378 kts 282°
2026-04-20 17:25 24.10593 40.71405 36907 ft 378 kts 282°
2026-04-20 17:25 24.12119 40.65937 36908 ft 378 kts 282°
2026-04-20 17:26 24.13652 40.60431 36906 ft 378 kts 282°
2026-04-20 17:26 24.15183 40.54926 36902 ft 378 kts 281°
2026-04-20 17:27 24.16795 40.49440 36889 ft 380 kts 285°
2026-04-20 17:27 24.19287 40.44269 36923 ft 387 kts 293°
2026-04-20 17:28 24.21957 40.39186 36896 ft 383 kts 291°
2026-04-20 17:28 24.24491 40.34038 36899 ft 384 kts 290°
2026-04-20 17:29 24.26978 40.28873 36895 ft 383 kts 290°
2026-04-20 17:29 24.29449 40.23703 36899 ft 383 kts 290°
2026-04-20 17:30 24.31920 40.18528 36897 ft 383 kts 290°
2026-04-20 17:30 24.34388 40.13355 36898 ft 383 kts 290°
2026-04-20 17:31 24.36854 40.08182 36900 ft 382 kts 290°
2026-04-20 17:31 24.39311 40.03018 36896 ft 382 kts 290°
2026-04-20 17:32 24.41769 39.97850 36896 ft 382 kts 290°
2026-04-20 17:32 24.44218 39.92692 36897 ft 381 kts 290°
2026-04-20 17:33 24.46664 39.87537 36886 ft 381 kts 290°
2026-04-20 17:33 24.49106 39.82384 36892 ft 380 kts 289°
2026-04-20 17:34 24.51545 39.77234 36889 ft 380 kts 289°
2026-04-20 17:34 24.53980 39.72098 36885 ft 380 kts 290°
2026-04-20 17:35 24.56839 39.67209 36848 ft 389 kts 300°
2026-04-20 17:35 24.58742 39.65048 36865 ft 400 kts 308°
2026-04-20 17:35 24.61089 39.63283 36878 ft 418 kts 320°
2026-04-20 17:36 24.66308 39.60460 36867 ft 410 kts 315°
2026-04-20 17:36 24.71140 39.57136 36870 ft 409 kts 314°
2026-04-20 17:37 24.75807 39.53610 36871 ft 405 kts 312°
2026-04-20 17:37 24.80388 39.50002 36887 ft 405 kts 311°
2026-04-20 17:38 24.84933 39.46364 36886 ft 404 kts 311°
2026-04-20 17:38 24.89466 39.42731 36886 ft 403 kts 311°
2026-04-20 17:39 24.94000 39.39091 36885 ft 403 kts 311°
2026-04-20 17:39 24.98531 39.35451 36890 ft 403 kts 311°
2026-04-20 17:40 25.03059 39.31810 36885 ft 403 kts 311°
2026-04-20 17:40 25.07590 39.28164 36888 ft 403 kts 310°
2026-04-20 17:41 25.12116 39.24516 36888 ft 403 kts 310°
2026-04-20 17:41 25.16617 39.20886 36900 ft 403 kts 310°
2026-04-20 17:42 25.21083 39.17177 36897 ft 391 kts 302°
2026-04-20 17:42 25.22563 39.14813 36857 ft 364 kts 284°
2026-04-20 17:42 25.23181 39.12148 36868 ft 358 kts 271°
2026-04-20 17:43 25.22816 39.06662 36863 ft 363 kts 260°
2026-04-20 17:43 25.22351 39.01117 36862 ft 363 kts 269°
2026-04-20 17:44 25.23522 38.95667 36854 ft 376 kts 290°
2026-04-20 17:44 25.25078 38.93293 36878 ft 392 kts 303°
2026-04-20 17:44 25.27293 38.91409 36877 ft 412 kts 315°
2026-04-20 17:45 25.32387 38.88366 36920 ft 418 kts 317°
2026-04-20 17:45 25.37449 38.85303 36892 ft 406 kts 311°
2026-04-20 17:45 25.39584 38.83370 36868 ft 390 kts 303°
2026-04-20 17:46 25.41404 38.81185 36868 ft 384 kts 298°
2026-04-20 17:46 25.44829 38.76647 36876 ft 384 kts 297°
2026-04-20 17:47 25.47987 38.71938 36861 ft 379 kts 294°
2026-04-20 17:47 25.50917 38.67113 36857 ft 377 kts 293°
2026-04-20 17:48 25.53756 38.62283 36851 ft 377 kts 292°
2026-04-20 17:48 25.56587 38.57405 36852 ft 376 kts 292°
2026-04-20 17:49 25.59409 38.52531 36851 ft 376 kts 292°
2026-04-20 17:49 25.62229 38.47657 36848 ft 375 kts 292°
2026-04-20 17:50 25.65044 38.42787 36844 ft 375 kts 292°
2026-04-20 17:50 25.67854 38.37920 36839 ft 375 kts 292°
2026-04-20 17:51 25.70660 38.33055 36841 ft 374 kts 292°
2026-04-20 17:51 25.73464 38.28188 36846 ft 374 kts 292°
2026-04-20 17:52 25.76262 38.23326 36844 ft 374 kts 292°
2026-04-20 17:52 25.79069 38.18442 36845 ft 376 kts 292°
2026-04-20 17:53 25.81876 38.13556 36828 ft 374 kts 291°
2026-04-20 17:53 25.84674 38.08674 36879 ft 375 kts 292°
2026-04-20 17:54 25.87464 38.03811 36857 ft 373 kts 292°
2026-04-20 17:54 25.90249 37.98945 36861 ft 373 kts 292°
2026-04-20 17:55 25.93033 37.94079 36871 ft 373 kts 292°
2026-04-20 17:55 25.95816 37.89209 36875 ft 373 kts 291°
2026-04-20 17:56 25.98598 37.84335 36880 ft 374 kts 291°
2026-04-20 17:56 25.99822 37.81829 36888 ft 360 kts 279°
2026-04-20 17:56 26.00099 37.79151 36873 ft 348 kts 262°
2026-04-20 17:56 25.99527 37.76525 36876 ft 354 kts 250°
2026-04-20 17:57 25.98374 37.74072 36876 ft 363 kts 242°
2026-04-20 17:57 25.95307 37.69521 36896 ft 371 kts 237°
2026-04-20 17:58 25.92384 37.64885 36879 ft 365 kts 245°
2026-04-20 17:58 25.90859 37.59622 36874 ft 358 kts 264°
2026-04-20 17:58 25.91018 37.56862 36828 ft 362 kts 278°
2026-04-20 17:59 25.91967 37.54236 36870 ft 375 kts 292°
2026-04-20 17:59 25.95134 37.49511 36894 ft 382 kts 296°
2026-04-20 18:00 25.98377 37.44858 36892 ft 381 kts 296°
2026-04-20 18:00 26.01621 37.40201 36887 ft 381 kts 296°
2026-04-20 18:01 26.04481 37.35376 36876 ft 361 kts 281°
2026-04-20 18:01 26.04956 37.32685 36868 ft 353 kts 269°
2026-04-20 18:01 26.04874 37.29961 36880 ft 354 kts 262°
2026-04-20 18:02 26.04076 37.24555 36872 ft 352 kts 260°
2026-04-20 18:02 26.03726 37.19130 36606 ft 353 kts 271°
2026-04-20 18:02 26.04174 37.16431 36407 ft 359 kts 281°
2026-04-20 18:03 26.05190 37.13860 36209 ft 371 kts 292°
2026-04-20 18:03 26.06841 37.11581 36004 ft 390 kts 305°
2026-04-20 18:03 26.09121 37.09808 35821 ft 411 kts 316°
2026-04-20 18:03 26.11470 37.08093 35724 ft 393 kts 306°
2026-04-20 18:04 26.13358 37.05974 35480 ft 381 kts 298°
2026-04-20 18:04 26.14991 37.03661 35262 ft 380 kts 295°
2026-04-20 18:04 26.16043 37.02101 35128 ft 381 kts 296°
2026-04-20 18:04 26.17717 36.99789 34918 ft 387 kts 300°
2026-04-20 18:05 26.21662 36.95554 34550 ft 397 kts 304°
2026-04-20 18:05 26.23567 36.93379 34365 ft 389 kts 299°
2026-04-20 18:05 26.25323 36.91084 34164 ft 390 kts 298°
2026-04-20 18:06 26.27094 36.88774 33988 ft 390 kts 297°
2026-04-20 18:06 26.28699 36.86356 33785 ft 387 kts 294°
2026-04-20 18:06 26.30238 36.83891 33563 ft 388 kts 294°
2026-04-20 18:06 26.31743 36.81393 33342 ft 389 kts 293°
2026-04-20 18:07 26.33235 36.78871 33134 ft 391 kts 294°
2026-04-20 18:07 26.34772 36.76362 32921 ft 392 kts 293°
2026-04-20 18:07 26.36289 36.73829 32706 ft 394 kts 294°
2026-04-20 18:07 26.37862 36.71318 32489 ft 396 kts 295°
2026-04-20 18:08 26.39456 36.68809 32280 ft 398 kts 295°
2026-04-20 18:08 26.41072 36.66289 32078 ft 399 kts 295°
2026-04-20 18:08 26.42696 36.63770 31863 ft 401 kts 296°
2026-04-20 18:08 26.44329 36.61243 31661 ft 402 kts 296°
2026-04-20 18:09 26.45966 36.58708 31457 ft 403 kts 296°
2026-04-20 18:09 26.47606 36.56168 31255 ft 404 kts 296°
2026-04-20 18:09 26.49230 36.53650 31057 ft 405 kts 296°
2026-04-20 18:09 26.50904 36.51055 30849 ft 407 kts 296°
2026-04-20 18:10 26.52556 36.48492 30648 ft 408 kts 296°
2026-04-20 18:10 26.54217 36.45913 30449 ft 409 kts 296°
2026-04-20 18:10 26.55879 36.43331 30243 ft 410 kts 296°
2026-04-20 18:10 26.57543 36.40738 30019 ft 411 kts 296°
2026-04-20 18:11 26.59189 36.38175 29786 ft 413 kts 296°
2026-04-20 18:11 26.60868 36.35571 29568 ft 414 kts 296°
2026-04-20 18:11 26.62549 36.32953 29330 ft 414 kts 296°
2026-04-20 18:11 26.64228 36.30336 29108 ft 415 kts 297°
2026-04-20 18:12 26.65843 36.27669 28854 ft 409 kts 290°
2026-04-20 18:12 26.66839 36.24753 28383 ft 398 kts 276°
2026-04-20 18:12 26.66936 36.21695 27922 ft 396 kts 261°
2026-04-20 18:12 26.66407 36.18652 27447 ft 401 kts 255°
2026-04-20 18:13 26.65759 36.15603 26990 ft 406 kts 258°
2026-04-20 18:13 26.65463 36.12455 26537 ft 410 kts 268°
2026-04-20 18:13 26.65912 36.09291 26116 ft 418 kts 282°
2026-04-20 18:13 26.67013 36.06257 25766 ft 421 kts 284°
2026-04-20 18:14 26.67782 36.03127 25333 ft 417 kts 277°
2026-04-20 18:14 26.68432 35.99958 24907 ft 419 kts 280°
2026-04-20 18:14 26.69183 35.96809 24517 ft 418 kts 280°
2026-04-20 18:14 26.69728 35.93642 24128 ft 414 kts 274°
2026-04-20 18:15 26.70119 35.90449 23700 ft 415 kts 277°
2026-04-20 18:15 26.70750 35.87298 23315 ft 415 kts 279°
2026-04-20 18:15 26.71424 35.84160 22851 ft 414 kts 279°
2026-04-20 18:15 26.72119 35.81081 22390 ft 404 kts 282°
2026-04-20 18:16 26.72620 35.78044 22024 ft 393 kts 272°
2026-04-20 18:16 26.72891 35.75011 21593 ft 392 kts 275°
2026-04-20 18:16 26.73445 35.72025 21241 ft 390 kts 274°
2026-04-20 18:16 26.73616 35.69009 20830 ft 388 kts 269°
2026-04-20 18:17 26.73908 35.66009 20418 ft 390 kts 277°
2026-04-20 18:17 26.74515 35.63053 20061 ft 390 kts 279°
2026-04-20 18:17 26.75154 35.60108 19669 ft 388 kts 279°
2026-04-20 18:17 26.75793 35.57177 19285 ft 388 kts 279°
2026-04-20 18:18 26.76432 35.54250 18912 ft 387 kts 279°
2026-04-20 18:18 26.77068 35.51329 18537 ft 386 kts 279°
2026-04-20 18:18 26.77657 35.48398 18156 ft 385 kts 278°
2026-04-20 18:18 26.78164 35.45461 17735 ft 384 kts 277°
2026-04-20 18:19 26.78643 35.42529 17313 ft 382 kts 276°
2026-04-20 18:19 26.79115 35.39612 16895 ft 381 kts 276°
2026-04-20 18:19 26.79581 35.36697 16478 ft 379 kts 276°
2026-04-20 18:19 26.80034 35.33840 16077 ft 377 kts 276°
2026-04-20 18:20 26.80484 35.30957 15674 ft 376 kts 276°
2026-04-20 18:20 26.80929 35.28084 15273 ft 374 kts 276°
2026-04-20 18:20 26.81368 35.25221 14878 ft 373 kts 276°
2026-04-20 18:20 26.81799 35.22369 14485 ft 371 kts 276°
2026-04-20 18:21 26.82230 35.19484 14098 ft 369 kts 276°
2026-04-20 18:21 26.82641 35.16694 13722 ft 368 kts 276°
2026-04-20 18:21 26.83054 35.13871 13294 ft 367 kts 277°
2026-04-20 18:21 26.83563 35.11040 12864 ft 365 kts 279°
2026-04-20 18:22 26.84044 35.08296 12443 ft 363 kts 278°
2026-04-20 18:22 26.84500 35.05488 12015 ft 361 kts 277°
2026-04-20 18:22 26.84930 35.02731 11676 ft 359 kts 277°
2026-04-20 18:22 26.85346 34.99980 11407 ft 358 kts 277°
2026-04-20 18:23 26.85753 34.97241 11140 ft 356 kts 277°
2026-04-20 18:23 26.86148 34.94551 10888 ft 354 kts 277°
2026-04-20 18:23 26.86551 34.91799 10604 ft 353 kts 277°
2026-04-20 18:23 26.86941 34.89129 10341 ft 351 kts 277°
2026-04-20 18:24 26.87340 34.86402 10082 ft 350 kts 277°
2026-04-20 18:24 26.87726 34.83750 9825 ft 349 kts 277°
2026-04-20 18:24 26.88116 34.81075 9546 ft 347 kts 278°
2026-04-20 18:24 26.88503 34.78412 9258 ft 346 kts 278°
2026-04-20 18:25 26.88888 34.75763 8972 ft 344 kts 278°
2026-04-20 18:25 26.89270 34.73124 8688 ft 342 kts 278°
2026-04-20 18:25 26.89651 34.70495 8413 ft 341 kts 278°
2026-04-20 18:25 26.90031 34.67871 8141 ft 340 kts 278°
2026-04-20 18:26 26.90408 34.65263 7864 ft 338 kts 278°
2026-04-20 18:26 26.90783 34.62666 7584 ft 337 kts 278°
2026-04-20 18:26 26.91157 34.60072 7347 ft 337 kts 278°
2026-04-20 18:26 26.91528 34.57488 7133 ft 336 kts 278°
2026-04-20 18:27 26.91899 34.54906 6912 ft 335 kts 278°
2026-04-20 18:27 26.92269 34.52330 6686 ft 335 kts 278°
2026-04-20 18:27 26.92638 34.49752 6468 ft 334 kts 279°
2026-04-20 18:27 26.93005 34.47186 6239 ft 333 kts 279°
2026-04-20 18:28 26.93371 34.44629 6004 ft 332 kts 279°
2026-04-20 18:28 26.93735 34.42081 5781 ft 331 kts 279°
2026-04-20 18:28 26.94097 34.39539 5542 ft 330 kts 279°
2026-04-20 18:28 26.94458 34.37010 5318 ft 325 kts 279°
2026-04-20 18:29 26.94807 34.34546 5086 ft 314 kts 279°
2026-04-20 18:29 26.95144 34.32166 4865 ft 304 kts 279°
2026-04-20 18:29 26.95471 34.29861 4649 ft 295 kts 280°
2026-04-20 18:29 26.95788 34.27621 4420 ft 287 kts 280°
2026-04-20 18:30 26.96096 34.25438 4200 ft 280 kts 280°
2026-04-20 18:30 26.96399 34.23296 3968 ft 278 kts 280°
2026-04-20 18:30 26.96702 34.21159 3735 ft 278 kts 281°
2026-04-20 18:30 26.97004 34.19019 3542 ft 277 kts 280°
2026-04-20 18:31 26.97302 34.16896 3432 ft 275 kts 281°
2026-04-20 18:31 26.97600 34.14780 3315 ft 274 kts 281°
2026-04-20 18:31 26.97898 34.12669 3209 ft 275 kts 281°
2026-04-20 18:31 26.98196 34.10553 3110 ft 275 kts 280°
2026-04-20 18:32 26.98493 34.08437 2975 ft 275 kts 281°
2026-04-20 18:32 26.98790 34.06315 2866 ft 276 kts 281°
2026-04-20 18:32 26.99086 34.04192 2746 ft 275 kts 281°
2026-04-20 18:32 26.99381 34.02083 2638 ft 274 kts 281°
2026-04-20 18:33 26.99675 33.99978 2535 ft 270 kts 282°
2026-04-20 18:33 26.99961 33.97930 2423 ft 261 kts 282°
2026-04-20 18:33 27.00234 33.95960 2310 ft 251 kts 282°
2026-04-20 18:33 27.00498 33.94071 2239 ft 239 kts 282°
2026-04-20 18:34 27.00745 33.92295 2286 ft 219 kts 282°
2026-04-20 18:34 27.00964 33.90691 2267 ft 198 kts 283°
2026-04-20 18:34 27.01157 33.89278 2268 ft 174 kts 283°
2026-04-20 18:34 27.01337 33.87976 2265 ft 168 kts 284°
2026-04-20 18:35 27.01519 33.86688 2255 ft 167 kts 284°
2026-04-20 18:35 27.01762 33.85426 2219 ft 164 kts 293°
2026-04-20 18:35 27.02333 33.84352 2170 ft 159 kts 316°
2026-04-20 18:35 27.03315 33.83847 2159 ft 161 kts 350°
2026-04-20 18:36 27.04443 33.83885 2234 ft 157 kts 351°
2026-04-20 18:36 27.05444 33.83745 2112 ft 132 kts 341°
2026-04-20 18:36 27.06294 33.83451 1990 ft 122 kts 338°
2026-04-20 18:36 27.07095 33.83243 1860 ft 115 kts 342°
2026-04-20 18:37 27.07864 33.83054 1695 ft 112 kts 341°
2026-04-20 18:37 27.08624 33.82845 1541 ft 114 kts 340°
2026-04-20 18:37 27.09396 33.82620 1397 ft 115 kts 339°
2026-04-20 18:37 27.10174 33.82387 1239 ft 116 kts 340°
2026-04-20 18:38 27.10966 33.82140 1116 ft 119 kts 339°
2026-04-20 18:38 27.11770 33.81893 982 ft 120 kts 338°
2026-04-20 18:38 27.12575 33.81632 719 ft 123 kts 337°
2026-04-20 18:38 27.13423 33.81397 538 ft 128 kts 340°
2026-04-20 18:39 27.14292 33.81160 425 ft 129 kts 336°
2026-04-20 18:39 27.15165 33.80909 348 ft 129 kts 336°
2026-04-20 18:39 27.16006 33.80642 174 ft 123 kts 335°
2026-04-20 18:39 27.16799 33.80402 52 ft 111 kts 337°
2026-04-20 18:40 27.17410 33.80213 54 ft 60 kts 348°
2026-04-20 18:40 27.17684 33.80145 56 ft 37 kts 347°
2026-04-20 18:40 27.17929 33.80073 56 ft 37 kts 343°
2026-04-20 18:40 27.18179 33.79999 49 ft 37 kts 346°
2026-04-20 18:41 27.18400 33.79946 47 ft 19 kts 348°
2026-04-20 18:41 27.18457 33.79988 52 ft 11 kts 71°
2026-04-20 18:41 27.18495 33.80069 51 ft 13 kts 30°
2026-04-20 18:41 27.18574 33.80114 53 ft 12 kts 53°
2026-04-20 18:42 27.18579 33.80190 54 ft 9 kts 109°
2026-04-20 18:42 27.18526 33.80239 55 ft 12 kts 162°
2026-04-20 18:42 27.18439 33.80264 56 ft 14 kts 166°
2026-04-20 18:42 27.18335 33.80296 53 ft 17 kts 165°
2026-04-20 18:43 27.18228 33.80331 56 ft 10 kts 154°
2026-04-20 18:43 27.18200 33.80398 59 ft 11 kts 119°
2026-04-20 18:43 27.18161 33.80430 55 ft 1 kts 139°
2026-04-20 18:43 27.18156 33.80446 59 ft 3 kts 107°
2026-04-20 18:44 27.18145 33.80484 56 ft 7 kts 104°
2026-04-20 18:44 27.18148 33.80514 61 ft 4 kts 74°
2026-04-20 18:44 27.18154 33.80539 57 ft 1 kts 75°
2026-04-20 18:44 27.18156 33.80546 57 ft 0 kts 75°